Iowa City, IA

2:03 AM CST on December 08, 2019 (GMT -0600)
Iowa City Municipal

Weather History for KIOW - October, 2019

Change the Weather History Date:

Saturday, October 5, 2019

  Actual Average Record
Temperature  
Mean Temperature 54 °F 56 °F  
Max Temperature 60 °F 68 °F 88 °F (1963)
Min Temperature 48 °F 44 °F 29 °F (1950)
Degree Days  
Heating Degree Days 11 10  
Month to date heating degree days 32 45  
Since 1 July heating degree days 39 157  
Cooling Degree Days 0 1  
Month to date cooling degree days 18 5  
Year to date cooling degree days 1175 907  
Growing Degree Days 6 (Base 50)    
Moisture  
Dew Point 53 °F    
Average Humidity 86    
Maximum Humidity 100    
Minimum Humidity 72    
Precipitation  
Precipitation 0.52 in 0.08 in 3.18 in (2018)
Month to date precipitation 1.41 0.42  
Year to date precipitation 38.38 29.96  
Sea Level Pressure  
Sea Level Pressure 29.96 in    
Wind  
Wind Speed 7 mph (SE)    
Max Wind Speed 17 mph    
Max Gust Speed 23 mph    
Visibility 6 miles    
Events Fog , Rain , Thunderstorm    
T = Trace of Precipitation, MM = Missing Value Source: NWS Daily Summary

Daily Weather History Graph

Daily Weather History Graph

Search for Another Location

Airport or City:

Astronomy

Oct. 05, 2019 Rise Set
Actual Time 7:07 AM CDT 6:41 PM CDT
Civil Twilight 6:39 AM CDT 7:09 PM CDT
Nautical Twilight 6:07 AM CDT 7:41 PM CDT
Astronomical Twilight 5:34 AM CDT 8:13 PM CDT
Moon 2:37 PM CDT (10/5) No Moon Set
Length of Visible Light 12h 29m
Length of Day
11h 34m
Waxing Crescent, 50% of the Moon is Illuminated
Oct 5
Waxing Crescent
Oct 13
Full
Oct 21
Last Quarter
Oct 27
New
Nov 4
First Quarter

Hourly Weather History & Observations

Time (CDT) Temp. Dew Point Humidity Pressure Visibility Wind Dir Wind Speed Gust Speed Precip Events Conditions
12:52 AM 55.0 °F 46.9 °F 74% 30.21 in 10.0 mi ESE 13.8 mph - 0.00 in   Scattered Clouds
1:52 AM 55.0 °F 46.9 °F 74% 30.22 in 10.0 mi ESE 10.4 mph 23.0 mph N/A   Overcast
2:52 AM 54.0 °F 46.0 °F 75% 30.19 in 10.0 mi ESE 11.5 mph 19.6 mph N/A   Overcast
3:52 AM 54.0 °F 46.0 °F 75% 30.17 in 10.0 mi ESE 11.5 mph - N/A   Overcast
4:52 AM 53.1 °F 46.0 °F 77% 30.14 in 10.0 mi ESE 8.1 mph 19.6 mph N/A   Overcast
5:52 AM 53.1 °F 46.0 °F 77% 30.12 in 10.0 mi ESE 11.5 mph - N/A   Overcast
6:52 AM 54.0 °F 46.0 °F 75% 30.07 in 10.0 mi SE 13.8 mph - N/A   Overcast
7:52 AM 54.0 °F 46.0 °F 75% 30.05 in 10.0 mi SE 11.5 mph - N/A   Overcast
8:52 AM 55.0 °F 46.9 °F 74% 30.03 in 10.0 mi SE 10.4 mph - 0.00 in Rain Light Rain
9:52 AM 55.9 °F 48.0 °F 75% 30.00 in 10.0 mi SE 15.0 mph - 0.00 in Rain Light Rain
10:28 AM 55.0 °F 48.0 °F 77% 30.02 in 3.0 mi SE 6.9 mph - 0.04 in Rain , Thunderstorm Heavy Rain
10:43 AM 54.0 °F 48.9 °F 83% 29.99 in 10.0 mi ESE 10.4 mph - 0.06 in Rain Light Rain
10:52 AM 54.0 °F 48.9 °F 83% 29.99 in 10.0 mi ESE 9.2 mph - 0.06 in Rain Light Rain
11:52 AM 57.0 °F 51.1 °F 81% 29.96 in 10.0 mi Variable 6.9 mph - 0.01 in Rain , Thunderstorm Light Rain
12:13 PM 57.0 °F 51.1 °F 81% 29.97 in 2.5 mi SE 5.8 mph - 0.06 in Rain , Thunderstorm Thunderstorms and Rain
12:28 PM 55.9 °F 51.1 °F 84% 29.98 in 2.5 mi SE 4.6 mph - 0.18 in Rain , Thunderstorm Light Rain
12:37 PM 55.0 °F 52.0 °F 89% 29.97 in 1.5 mi ESE 3.5 mph - 0.24 in Rain , Thunderstorm Light Rain
12:40 PM 55.0 °F 52.0 °F 89% 29.97 in 3.0 mi East 4.6 mph - 0.24 in Rain , Thunderstorm Light Rain
12:52 PM 55.0 °F 52.0 °F 89% 29.97 in 2.0 mi SE 4.6 mph - 0.31 in Rain , Thunderstorm Rain
1:04 PM 55.0 °F 52.0 °F 89% 29.95 in 2.5 mi ESE 8.1 mph - 0.05 in Rain Heavy Rain
1:11 PM 55.0 °F 52.0 °F 89% 29.94 in 4.0 mi East 8.1 mph - 0.07 in Rain Rain
1:18 PM 55.0 °F 52.0 °F 89% 29.93 in 5.0 mi ESE 8.1 mph - 0.08 in Rain Rain
1:52 PM 55.9 °F 53.1 °F 90% 29.91 in 10.0 mi East 9.2 mph - 0.09 in Rain Light Rain
2:31 PM 57.0 °F 54.0 °F 89% 29.90 in 10.0 mi ESE 8.1 mph - 0.02 in   Overcast
2:52 PM 57.0 °F 54.0 °F 89% 29.90 in 10.0 mi ESE 8.1 mph - 0.02 in   Overcast
2:59 PM 57.0 °F 54.0 °F 89% 29.89 in 10.0 mi ESE 10.4 mph - N/A   Overcast
3:14 PM 57.0 °F 54.0 °F 89% 29.88 in 10.0 mi ESE 10.4 mph - N/A   Overcast
3:33 PM 57.0 °F 54.0 °F 89% 29.88 in 10.0 mi ESE 9.2 mph - N/A   Overcast
3:52 PM 57.9 °F 55.0 °F 90% 29.88 in 2.0 mi SE 10.4 mph - 0.00 in Rain Light Rain
4:00 PM 57.9 °F 55.0 °F 90% 29.88 in 1.8 mi SE 11.5 mph - 0.01 in Rain Light Rain
4:10 PM 57.9 °F 55.9 °F 93% 29.87 in 2.5 mi SSE 6.9 mph 18.4 mph 0.01 in Rain Light Rain
4:17 PM 57.9 °F 55.9 °F 93% 29.88 in 4.0 mi SSE 8.1 mph - 0.01 in   Overcast
4:34 PM 59.0 °F 55.9 °F 90% 29.87 in 2.5 mi SSE 11.5 mph - 0.01 in   Overcast
4:38 PM 59.0 °F 55.9 °F 90% 29.87 in 2.5 mi West 6.9 mph 17.3 mph 0.01 in   Overcast
4:52 PM 59.0 °F 57.0 °F 93% 29.88 in 2.0 mi SSE 8.1 mph - 0.01 in   Overcast
5:27 PM 59.0 °F 57.0 °F 93% 29.87 in 3.0 mi SSE 4.6 mph - 0.01 in Rain Light Rain
5:37 PM 59.0 °F 57.0 °F 93% 29.88 in 5.0 mi Calm Calm - 0.01 in Rain Light Rain
5:52 PM 59.0 °F 57.0 °F 93% 29.88 in 3.0 mi Calm Calm - 0.01 in   Overcast
5:59 PM 59.0 °F 57.0 °F 93% 29.88 in 1.8 mi Calm Calm - 0.01 in Rain Light Rain
6:04 PM 59.0 °F 57.0 °F 93% 29.87 in 2.0 mi SE 3.5 mph - 0.01 in Rain Light Rain
6:15 PM 60.1 °F 57.0 °F 90% 29.87 in 4.0 mi SSE 3.5 mph - 0.01 in   Overcast
6:44 PM 59.0 °F 57.0 °F 93% 29.88 in 9.0 mi SSE 3.5 mph - 0.01 in   Mostly Cloudy
6:52 PM 59.0 °F 57.0 °F 93% 29.88 in 9.0 mi SSE 4.6 mph - 0.01 in   Scattered Clouds
7:14 PM 59.0 °F 57.0 °F 93% 29.89 in 9.0 mi Calm Calm - N/A   Mostly Cloudy
7:24 PM 57.9 °F 55.9 °F 93% 29.89 in 1.8 mi Calm Calm - N/A   Mostly Cloudy
7:52 PM 57.9 °F 57.0 °F 97% 29.92 in 4.0 mi Calm Calm - N/A   Mostly Cloudy
8:01 PM 57.9 °F 55.9 °F 93% 29.92 in 1.8 mi Calm Calm - N/A   Mostly Cloudy
8:06 PM 57.0 °F 55.9 °F 96% 29.92 in 1.0 mi Calm Calm - N/A   Mostly Cloudy
8:15 PM 57.9 °F 55.9 °F 93% 29.92 in 1.0 mi Calm Calm - N/A   Scattered Clouds
8:26 PM 57.9 °F 55.9 °F 93% 29.93 in 0.5 mi Calm Calm - N/A Fog Fog
8:40 PM 55.9 °F 54.0 °F 93% 29.93 in 0.2 mi Calm Calm - N/A Fog Fog
8:52 PM 55.0 °F 54.0 °F 96% 29.94 in 0.2 mi West 3.5 mph - N/A Fog Fog
9:01 PM 55.9 °F 54.0 °F 93% 29.95 in 0.5 mi West 5.8 mph - N/A Fog Fog
9:05 PM 55.9 °F 54.0 °F 93% 29.95 in 1.0 mi West 9.2 mph - N/A   Mostly Cloudy
9:09 PM 57.9 °F 55.9 °F 93% 29.95 in 2.5 mi West 12.7 mph 17.3 mph N/A   Mostly Cloudy
9:16 PM 57.9 °F 55.9 °F 93% 29.96 in 10.0 mi WNW 10.4 mph - N/A   Scattered Clouds
9:52 PM 57.9 °F 52.0 °F 81% 29.97 in 10.0 mi NW 5.8 mph - N/A   Clear
10:52 PM 52.0 °F 48.9 °F 89% 29.99 in 10.0 mi West 3.5 mph - N/A   Clear
11:52 PM 51.1 °F 46.9 °F 86% 30.00 in 10.0 mi Calm Calm - N/A   Clear